Weather History for Albuquerque Double Eagle, NM

Change the Weather History Date:

Thursday, February 14, 2013

  Actual Average Record
Temperature  
Mean Temperature 30 °F -  
Max Temperature 46 °F - - ()
Min Temperature 15 °F - - ()
Degree Days  
Heating Degree Days 34    
Moisture  
Dew Point 11 °F    
Average Humidity 49    
Maximum Humidity 68    
Minimum Humidity 23    
Precipitation  
Precipitation 0.00 in - - ()
Sea Level Pressure  
Sea Level Pressure 30.14 in    
Wind  
Wind Speed 8 mph (NNW)    
Max Wind Speed 29 mph    
Max Gust Speed 23 mph    
Visibility 10 miles    
Events      
T = Trace of Precipitation, MM = Missing Value Source: NWS Daily Summary

Daily Weather History Graph

Daily Weather History Graph

Search for Another Location

Airport:

Trip Planner

Search our weather history database for the weather conditions in past years. The results will help you decide how hot, cold, wet, or windy it might be!

Date:

Astronomy

Feb. 14, 2013 Rise Set
Actual Time 6:54 AM MST 5:49 PM MST
Civil Twilight 6:28 AM MST 6:15 PM MST
Nautical Twilight 5:58 AM MST 6:44 PM MST
Astronomical Twilight 5:28 AM MST 7:14 PM MST
Moon 9:10 AM MST (2/14) 10:40 PM MST (2/14)
Length of Visible Light 11h 46m
Length of Day
10h 55m
Waxing Crescent, 22% of the Moon is Illuminated
Feb 14
Waxing Crescent
Feb 17
First Quarter
Feb 25
Full
Mar 4
Last Quarter
Mar 11
New

Hourly Weather History & Observations

Time (MST) Temp. Windchill Dew Point Humidity Pressure Visibility Wind Dir Wind Speed Gust Speed Precip Events Conditions
12:15 AM 26.6 °F 19.1 °F 10.4 °F 51% 30.12 in 10.0 mi NW 6.9 mph - N/A   Clear
12:35 AM 24.8 °F 17.9 °F 10.4 °F 54% 30.13 in 10.0 mi North 5.8 mph - N/A   Clear
12:55 AM 24.8 °F 16.1 °F 10.4 °F 54% 30.12 in 10.0 mi NNW 8.1 mph - N/A   Clear
1:15 AM 26.6 °F 19.1 °F 10.4 °F 51% 30.12 in 10.0 mi NNW 6.9 mph - N/A   Clear
1:35 AM 24.8 °F 19.1 °F 10.4 °F 54% 30.12 in 10.0 mi NNW 4.6 mph - N/A   Clear
1:55 AM 24.8 °F 15.3 °F 10.4 °F 54% 30.11 in 10.0 mi North 9.2 mph - N/A   Clear
2:15 AM 21.2 °F - 8.6 °F 58% 30.11 in 10.0 mi Calm Calm - N/A   Clear
2:35 AM 23.0 °F 15.8 °F 8.6 °F 54% 30.11 in 10.0 mi North 5.8 mph - N/A   Clear
2:55 AM 21.2 °F - 6.8 °F 54% 30.11 in 10.0 mi Calm Calm - N/A   Clear
3:15 AM 19.4 °F - 8.6 °F 63% 30.11 in 10.0 mi Calm Calm - N/A   Clear
3:35 AM 15.8 °F 8.6 °F 6.8 °F 68% 30.10 in 10.0 mi NNW 4.6 mph - N/A   Clear
3:55 AM 15.8 °F 10.2 °F 6.8 °F 68% 30.10 in 10.0 mi NNW 3.5 mph - N/A   Clear
4:15 AM 19.4 °F 10.4 °F 10.4 °F 68% 30.10 in 10.0 mi NW 6.9 mph - N/A   Clear
4:35 AM 15.8 °F - 5.0 °F 62% 30.10 in 10.0 mi Calm Calm - N/A   Clear
5:50 AM 15.8 °F 3.4 °F 6.8 °F 68% 30.11 in 10.0 mi WNW 10.4 mph - N/A   Clear
6:50 AM 15.8 °F - 6.8 °F 68% 30.13 in 10.0 mi Calm Calm - N/A   Clear
7:50 AM 23.0 °F 14.7 °F 12.2 °F 63% 30.14 in 10.0 mi NNW 6.9 mph - N/A   Clear
8:50 AM 32.0 °F - 14.0 °F 48% 30.16 in 10.0 mi Calm Calm - N/A   Clear
9:50 AM 35.6 °F 29.2 °F 15.8 °F 44% 30.15 in 10.0 mi NNW 8.1 mph - N/A   Clear
10:50 AM 37.4 °F 32.1 °F 15.8 °F 41% 30.15 in 10.0 mi NW 6.9 mph - N/A   Clear
11:50 AM 41.0 °F 33.5 °F 14.0 °F 33% 30.12 in 10.0 mi NW 13.8 mph 19.6 mph N/A   Clear
12:50 PM 44.6 °F 37.4 °F 14.0 °F 29% 30.09 in 10.0 mi NW 16.1 mph 23.0 mph N/A   Clear
1:50 PM 46.4 °F 40.4 °F 10.4 °F 23% 30.08 in 10.0 mi NW 13.8 mph 23.0 mph N/A   Clear
2:50 PM 46.4 °F 37.7 °F 12.2 °F 25% 30.08 in 10.0 mi NW 26.5 mph - N/A   Clear
3:50 PM 46.4 °F 37.4 °F 12.2 °F 25% 30.09 in 10.0 mi NW 28.8 mph - N/A   Clear
4:50 PM 44.6 °F 35.3 °F 10.4 °F 25% 30.08 in 10.0 mi WNW 26.5 mph - N/A   Clear
5:50 PM 41.0 °F 31.6 °F 12.2 °F 31% 30.11 in 10.0 mi NW 20.7 mph - N/A   Clear
6:50 PM 37.4 °F 27.8 °F 12.2 °F 36% 30.12 in 10.0 mi NW 17.3 mph - N/A   Clear
9:15 PM 33.8 °F 23.5 °F 14.0 °F 44% 30.18 in 10.0 mi NNW 16.1 mph - N/A   Clear
9:35 PM 33.8 °F 23.2 °F 14.0 °F 44% 30.19 in 10.0 mi NNW 17.3 mph - N/A   Clear
9:55 PM 33.8 °F 23.9 °F 14.0 °F 44% 30.19 in 10.0 mi NW 15.0 mph - N/A   Clear
10:15 PM 32.0 °F 21.2 °F 14.0 °F 48% 30.20 in 10.0 mi NNW 16.1 mph - N/A   Clear
10:35 PM 32.0 °F 21.2 °F 14.0 °F 48% 30.20 in 10.0 mi NNW 16.1 mph - N/A   Clear
10:55 PM 32.0 °F 21.6 °F 14.0 °F 48% 30.21 in 10.0 mi NNW 15.0 mph - N/A   Clear
11:15 PM 32.0 °F 22.5 °F 14.0 °F 48% 30.21 in 10.0 mi North 12.7 mph - N/A   Clear
11:35 PM 32.0 °F 24.2 °F 14.0 °F 48% 30.22 in 10.0 mi NE 9.2 mph - N/A   Clear
11:55 PM 30.2 °F 24.3 °F 14.0 °F 51% 30.23 in 10.0 mi East 5.8 mph - N/A   Clear